Helicity
31 25 26 17 3 11 84 111 52 33 20 25 38 28 23 26 32 19 23 45 21 20 22 25 23 19 26 31 25 34 49 94 137 148 179 184 159 143 136 77 151 125 197 189
28 25 28 30 22 41 65 83 44 34 48 28 41 42 25 19 33 27 22 13 24 33 21 26 14 41 12 21 35 44 70 112 137 117 97 112 122 106 60 58 101 167 223 246
28 21 35 30 24 28 52 59 51 52 42 60 71 30 43 39 20 13 30 23 7 11 6 17 10 16 34 68 82 119 115 150 113 99 72 85 72 94 124 67 100 157 151 179
27 24 32 27 37 35 58 57 80 59 46 44 61 35 43 42 21 19 23 19 6 7 -19 9 34 40 53 63 81 70 88 82 25 45 50 40 84 73 90 68 81 94 132 132
32 35 22 35 19 56 42 63 72 95 72 36 37 38 55 44 23 20 36 17 8 5 3 22 23 48 52 62 77 40 36 23 30 64 46 -12 33 54 78 64 58 59 97 90
32 56 50 7 28 74 58 45 81 80 50 33 49 72 50 22 18 33 16 23 12 -7 14 33 40 32 37 52 50 67 42 42 31 88 76 44 42 39 18 55 42 42 65 113
44 64 63 52 47 47 69 86 62 37 51 46 67 36 47 16 28 43 19 2 15 27 30 21 32 31 43 46 43 40 54 46 39 57 30 39 23 22 14 18 50 56 69 111
27 49 67 75 56 51 65 69 58 28 48 49 43 17 39 24 27 35 28 28 30 28 20 30 22 -8 -13 7 29 32 23 26 34 21 21 2 6 19 27 26 54 75 60 57
26 41 48 38 37 29 48 51 71 35 38 44 56 37 45 68 63 51 45 34 20 15 53 61 69 80 41 -4 -27 8 -2 -8 -3 17 20 40 21 12 2 18 -22 34 39 47
31 29 26 28 23 30 8 35 28 29 29 37 31 17 42 41 44 59 61 57 43 42 60 80 74 74 56 61 57 23 4 -2 12 -6 -9 21 14 9 -0 20 34 18 14 18
31 15 14 11 15 16 9 46 49 41 43 47 29 15 18 30 31 49 59 51 52 59 67 87 96 100 91 51 45 45 72 73 66 27 35 64 -8 4 51 38 -6 5 -3 3
26 5 8 -3 12 25 17 30 68 46 34 52 36 17 7 19 32 35 40 60 66 72 71 74 78 82 73 99 148 36 84 75 71 93 62 -4 -9 -2 16 14 13 24 22 22
34 11 -7 -12 -2 8 14 23 46 41 42 41 15 17 10 10 16 21 37 47 45 46 54 64 73 97 76 106 117 76 53 46 61 49 48 38 40 16 18 33 46 32 27 31
2 -3 -24 -42 -50 -31 14 26 43 38 50 19 28 15 5 31 18 20 20 24 23 37 43 53 63 75 60 92 90 89 81 65 60 19 -9 18 28 41 60 60 60 68 55 62
54 16 -8 -13 -24 15 37 20 19 3 38 28 23 21 9 23 13 8 11 18 24 27 35 46 64 59 49 64 55 104 91 71 87 66 51 17 3 66 79 102 99 93 99 93
87 84 58 57 66 52 28 60 12 13 3 32 37 20 17 29 28 29 -5 3 7 18 25 33 28 25 25 38 54 41 56 46 43 9 32 -18 2 82 78 73 88 83 84 85
147 147 130 85 79 73 50 53 20 31 11 43 57 41 32 38 41 41 37 40 21 28 18 25 36 31 39 38 60 37 44 57 41 58 135 19 87 64 78 76 80 87 84 84
149 131 128 113 81 36 38 15 41 41 32 34 62 62 56 51 55 52 52 47 47 33 35 35 39 35 46 12 35 12 46 105 91 120 52 59 91 100 102 97 97 81 71 72
104 101 94 123 124 100 47 9 24 26 41 67 52 58 61 49 72 78 73 71 45 58 48 47 49 40 34 41 28 46 82 97 90 96 71 100 124 128 130 109 84 75 73 83
72 128 144 102 96 85 80 68 71 60 56 101 56 76 61 48 64 84 86 75 69 44 34 73 38 23 33 28 24 33 74 99 166 187 110 105 100 117 114 73 71 75 81 97
124 138 154 153 74 110 91 91 120 119 94 58 78 126 99 60 77 68 80 84 81 50 30 71 31 35 -10 -7 45 55 71 127 111 91 126 112 123 124 114 84 81 93 102 102
153 165 185 162 144 131 125 130 164 162 121 134 94 90 162 142 113 100 81 101 118 82 88 84 37 20 17 57 54 107 125 162 153 100 96 109 118 128 120 116 120 114 107 118
223 193 173 139 148 180 183 243 265 198 214 130 110 143 154 168 165 141 116 112 102 148 140 89 61 54 57 48 77 103 129 176 189 138 116 123 138 149 156 152 139 143 139 118
201 180 160 172 221 291 280 284 191 196 148 134 131 167 134 165 165 159 135 141 183 153 158 87 58 52 58 65 76 136 163 194 217 185 170 181 187 170 170 171 172 165 143 122
182 168 125 197 269 272 146 109 117 133 105 135 160 182 166 158 190 177 235 210 177 151 112 89 72 84 95 97 83 109 164 196 213 213 210 197 210 209 201 176 167 154 138 127
228 150 228 251 257 216 228 201 184 155 134 168 194 186 205 201 245 268 225 273 194 124 80 92 79 81 82 81 74 92 149 177 199 203 203 217 210 196 192 187 168 139 131 128
297 332 241 251 262 184 160 147 144 170 220 235 233 244 223 265 248 287 290 237 181 145 129 125 87 88 84 82 91 114 149 170 181 207 216 197 207 225 219 187 138 128 122 114
Wind_Speed
19 27 34 41 48 43 32 38 51 34 25 40 41 42 35 32 34 36 39 36 40 44 39 32 28 22 22 24 24 19 22 22 19 20 23 19 18 19 24 42 37 38 37 38
26 33 41 48 57 39 41 44 45 33 25 46 43 39 35 32 36 37 38 40 35 35 33 33 26 29 24 23 20 17 18 17 16 17 26 20 14 9 21 29 43 35 48 31
36 45 52 49 50 43 36 42 48 37 29 37 40 40 37 37 36 41 37 41 37 38 34 22 24 23 28 30 27 26 23 10 12 6 13 26 27 10 10 22 21 35 41 22
46 54 54 51 49 38 33 36 44 41 44 42 37 35 36 43 44 39 35 40 43 39 39 35 31 25 27 35 27 29 29 3 3 6 34 19 19 8 10 13 14 23 23 21
55 58 53 49 49 36 34 42 42 39 44 42 37 33 37 46 46 38 42 47 43 34 42 38 39 28 31 33 25 30 28 17 12 12 17 10 22 16 11 3 9 23 18 16
55 58 51 50 47 30 35 32 35 41 41 41 36 33 38 44 41 37 40 44 45 43 38 33 30 27 30 28 26 25 24 30 22 29 35 34 20 21 7 16 1 5 13 16
56 59 55 51 43 28 35 32 34 38 42 40 36 39 46 43 37 46 39 38 41 35 30 31 35 36 35 32 27 25 28 30 33 30 29 25 37 37 30 15 8 32 43 26
59 59 55 49 47 32 30 26 31 34 39 41 39 43 47 47 43 43 42 36 39 32 35 40 42 41 42 40 35 32 31 35 33 30 24 37 36 36 34 37 28 11 14 38
61 58 55 51 45 41 30 26 25 31 36 34 34 43 45 43 43 41 38 36 36 32 36 40 48 52 46 44 41 36 35 36 35 33 32 38 36 40 38 34 41 19 13 10
56 54 57 53 49 45 37 29 21 28 35 33 31 42 41 36 40 42 40 38 35 31 37 45 48 48 41 48 46 44 43 42 44 40 42 36 41 41 38 41 44 37 32 30
58 57 60 56 51 49 38 31 22 29 33 35 29 33 37 37 37 39 39 38 35 34 41 42 43 44 40 41 40 44 45 47 45 44 46 46 44 44 42 46 47 44 39 36
60 59 59 58 56 50 31 30 24 19 30 38 36 36 34 33 34 37 34 36 37 35 36 35 36 39 39 41 45 37 43 42 42 44 42 41 43 43 46 53 50 45 44 42
60 63 61 58 57 53 34 29 28 23 33 33 35 39 36 30 30 31 36 31 33 32 32 32 33 36 35 39 38 37 36 39 38 39 40 43 47 47 46 52 49 48 45 44
46 54 53 53 56 45 34 32 32 27 28 32 35 36 38 33 31 32 32 31 30 30 30 31 32 33 33 33 32 34 37 44 42 37 37 42 44 45 49 49 48 47 44 42
32 30 19 9 11 9 25 26 27 29 28 28 34 35 37 35 34 34 33 33 31 30 30 30 30 30 29 29 28 33 42 42 45 40 44 42 43 49 49 48 46 44 42 40
23 17 10 5 5 9 25 29 30 30 27 28 26 32 36 36 34 30 34 32 30 28 27 26 28 30 29 29 30 32 40 43 43 36 41 43 40 49 47 45 43 41 39 37
16 14 8 4 10 22 27 30 33 35 31 30 31 30 28 28 30 31 27 32 20 22 22 23 23 23 24 27 27 32 38 39 36 32 37 39 42 42 44 41 39 36 34 33
11 8 5 8 13 17 29 34 35 37 32 31 31 33 32 21 22 25 29 27 29 23 20 21 18 21 18 26 31 27 25 24 22 22 17 27 30 33 36 34 33 31 29 27
3 4 15 26 29 29 35 38 40 36 35 37 32 32 34 26 25 26 27 29 28 31 21 19 19 14 19 25 26 28 25 22 21 16 13 18 22 25 28 29 28 25 24 23
6 20 25 33 33 39 43 40 41 40 38 36 41 30 34 26 26 28 28 31 30 32 25 29 11 21 47 41 29 26 31 27 21 17 14 15 15 19 20 21 20 19 18 20
27 32 33 30 33 35 40 44 41 38 42 37 38 32 33 29 32 28 28 31 31 31 29 26 25 37 44 23 34 31 31 32 31 20 16 15 16 16 14 11 12 14 16 17
26 23 27 31 34 36 40 41 39 39 43 33 33 35 32 30 31 33 33 35 33 32 28 33 30 42 24 17 9 25 25 29 27 23 23 18 14 13 10 7 8 11 14 18
20 28 31 34 38 43 43 44 42 42 39 33 34 35 32 33 33 38 37 38 37 36 36 35 31 42 31 20 14 7 16 21 21 16 15 16 13 11 8 6 8 11 15 18
18 14 11 19 29 42 44 44 43 40 38 30 29 36 39 37 38 41 46 44 40 43 43 40 42 38 23 19 11 3 9 13 16 13 15 13 12 9 7 6 7 11 14 19
12 11 5 12 20 27 35 38 41 41 33 30 36 39 41 44 46 45 46 50 51 47 49 44 44 38 27 18 12 6 4 9 13 13 11 10 9 7 4 5 8 13 17 20
38 7 14 27 35 34 31 28 36 36 33 34 40 45 50 54 50 52 55 56 58 54 50 49 45 40 30 23 21 15 9 8 10 11 9 7 6 3 2 7 11 15 18 21
56 50 32 36 43 35 33 27 30 18 16 47 47 55 56 48 59 66 57 65 63 63 61 52 48 48 43 36 29 22 16 14 12 11 9 8 5 4 7 12 14 17 21 24
Wind_Direction
204 183 174 171 168 170 175 177 156 190 209 158 155 139 142 136 129 136 142 153 143 139 158 170 186 207 206 177 191 226 211 201 184 162 146 144 170 144 142 117 107 103 116 97
173 170 166 163 162 172 172 163 161 193 197 144 140 142 137 132 130 133 140 144 158 159 159 163 180 172 175 177 209 240 223 195 195 177 147 127 131 115 133 132 114 91 103 103
158 157 157 159 164 167 169 165 154 167 172 158 142 134 130 126 132 130 131 139 153 152 150 180 187 191 167 158 175 178 188 237 172 98 151 144 132 45 36 133 120 103 91 86
150 150 153 158 163 172 172 165 153 156 149 146 140 134 132 124 125 128 130 129 134 140 138 148 152 176 175 155 175 171 170 239 43 161 143 31 114 89 29 71 108 106 92 79
146 148 153 159 163 174 165 152 152 156 146 149 140 135 128 122 124 126 118 122 128 136 131 139 142 168 166 161 181 169 178 211 228 208 176 41 132 120 11 78 127 114 116 77
149 150 155 156 163 173 160 163 157 147 143 144 137 138 132 128 130 126 124 125 123 120 131 149 171 180 176 185 187 191 195 179 199 184 173 159 167 141 179 147 119 166 116 128
147 147 150 154 166 167 159 160 153 143 136 137 136 135 129 131 128 125 126 124 125 131 144 144 148 154 162 171 184 194 196 192 180 190 188 192 152 141 146 157 302 114 107 132
141 147 155 161 163 169 164 161 150 142 136 138 136 135 130 128 126 125 126 125 129 136 130 124 122 126 130 137 156 170 179 168 176 186 188 167 172 162 148 122 137 184 158 108
146 152 158 158 165 171 173 160 153 145 143 145 153 139 137 131 129 129 130 133 136 127 127 121 112 111 119 124 133 149 153 156 169 183 179 162 167 137 132 137 81 176 199 273
165 164 157 161 163 169 170 163 163 147 144 156 160 145 144 143 134 131 132 136 138 134 124 115 112 113 124 118 124 127 131 133 137 147 147 159 147 147 149 123 123 139 138 133
171 161 157 160 162 161 169 165 173 154 147 160 169 167 158 149 141 135 138 134 135 134 122 120 120 119 125 127 130 130 130 131 135 138 136 134 149 145 137 131 134 131 130 131
178 166 160 161 162 165 191 176 182 191 163 153 163 161 167 163 157 145 149 140 137 137 133 131 132 125 127 126 120 143 130 141 136 139 139 148 152 144 141 134 133 135 131 132
171 169 165 160 162 169 197 191 186 198 160 165 168 164 175 181 175 173 154 154 151 147 148 143 140 131 138 129 131 137 151 151 143 142 150 147 149 146 142 136 135 133 133 130
154 155 150 152 157 142 216 209 205 210 196 163 175 188 178 185 185 179 178 172 170 163 160 149 142 137 150 143 149 146 149 144 146 151 153 150 157 153 144 136 130 128 131 127
130 137 133 142 106 333 299 303 294 272 282 246 216 218 201 204 190 178 175 177 162 156 142 138 140 154 157 158 164 161 153 144 136 138 149 143 153 150 146 138 137 133 129 126
104 126 137 143 307 351 300 308 306 301 337 344 326 286 263 251 258 277 193 173 143 126 126 137 156 168 160 151 146 173 155 158 152 154 149 158 150 142 144 142 136 134 128 122
77 95 113 111 309 305 305 313 308 294 318 332 318 318 320 311 308 313 340 306 59 73 96 117 111 117 111 156 156 168 154 141 130 99 98 123 120 136 138 137 133 120 114 110
87 58 14 319 329 325 310 310 308 304 317 322 318 313 314 334 332 336 334 346 345 13 33 43 61 38 65 168 171 135 111 101 93 92 41 103 105 107 122 118 116 117 115 107
169 330 313 301 297 300 301 305 303 308 306 303 310 312 311 329 321 327 335 335 344 336 357 7 17 50 138 155 151 145 131 123 117 95 32 80 100 107 113 117 117 109 105 96
240 293 295 292 295 297 303 304 301 303 301 298 295 310 305 319 321 314 327 328 333 332 346 335 19 188 213 198 166 146 152 140 118 119 112 105 107 117 115 121 110 97 86 75
267 279 282 299 307 300 303 296 296 299 297 299 297 292 297 305 305 309 315 321 325 328 334 339 344 279 238 162 177 166 155 154 150 135 130 122 120 124 117 99 80 66 60 49
262 286 295 298 300 300 296 295 300 297 298 300 301 295 291 298 303 301 306 306 312 312 324 321 329 296 329 349 56 158 150 153 151 143 142 139 131 127 118 86 51 42 33 25
282 287 288 291 289 285 288 287 295 299 303 304 302 293 290 294 295 296 297 296 297 304 304 306 310 306 319 333 348 110 146 151 150 140 132 131 126 120 115 91 24 18 13 12
303 297 268 278 291 288 286 289 297 301 306 310 303 291 290 288 284 287 288 289 295 294 293 300 305 306 307 321 332 36 157 162 161 156 142 135 129 119 95 69 42 17 9 2
300 315 286 275 303 310 306 296 295 301 306 303 301 295 285 283 282 282 283 285 283 287 291 301 307 307 307 300 305 299 205 181 177 173 169 157 142 129 92 44 21 5 1 359
283 268 305 315 304 296 303 310 308 304 293 299 298 291 286 276 278 276 273 277 281 292 299 304 303 305 304 297 295 293 274 230 202 195 196 194 184 198 334 358 354 352 354 355
271 276 285 294 302 310 308 303 301 305 300 286 285 282 279 287 278 273 274 277 286 295 298 303 300 294 294 295 291 289 277 259 241 233 234 239 268 304 319 321 334 342 345 347